Search the data

BODC Cruise Metadata Report for RRS Frederick Russell cruise FR13/85

Introduction

This report collates information from the BODC cruise inventory and oceanographic databases. It presents

Cruise Inventory Information

Long name RRS Frederick Russell cruise FR13/85
Short name FR13/85
Objectives and Narrative Deployment and recovery of current meter moorings; CTD survey; radiocaesium sampling
Ship RRS Frederick Russell
Departure Port Falmouth, United Kingdom
Departure Date 1985-12-04
Arrival Port Oban, United Kingdom
Arrival Date 1985-12-17
Principal Scientist(s) David J Ellett (Scottish Marine Biological Association)
Responsible Organisation SOAFD Aberdeen Marine Laboratory
Associated Project(s)
IHB Sea Areas Visited Irish Sea and St. George's Channel, North East Atlantic Ocean (limit 40W)
Marsden Squares Visited 181;245/181;354/181;455/181;456/181;467/181;468/181;469
Work Area Description Clyde Approaches/ West of Scotland
Work Area Bounding Polygon 54N,10W; 57N,10W; 57N,4W; 54N,4W; 54N,10W
Southern Limit 54N
Northern Limit 57N
Western Limit 10W
Eastern Limit 4W

Cruise Inventory Datasets

Physical oceanography  
CTD stations Quantity: number of stations = 112
Description:  
Current meters Quantity: 12
Description: 1 recovered;118 days  
Water bottle stations Quantity: number of stations = 119
Description:  
Chemical oceanography  
Radioactivity Quantity: number of samples = 107
Description: Cs-137  

Cruise Inventory Mooring/Buoy Operations

No information on datasets is currently available

Summary of BODC Data Holdings for the Cruise

National Oceanographic Database

Summary

# Series Instrument Description Parameters
111 CTD/STD cast Salinity of the water column
Temperature of the water column
Vertical spatial coordinates
1 Savonius rotor current meter Date and time
Horizontal velocity of the water column (currents)
Moored instrument depth
Temperature of the water column

Note: Parameter terms are taken from the BODC Parameter Discovery Vocabulary XML (SKOS)

Full List

BODC Reference Instrument Description Date/Time Location  
60967 Savonius rotor current meter 1985-12-15 17:00Z to 1986-03-21 14:30Z 56° 37' N, 6° 24' W Click for more
254940 CTD/STD cast 1985-12-07 23:05Z 55° 28' N, 4° 45' W Click for more
254952 CTD/STD cast 1985-12-07 23:44Z 55° 27' N, 4° 50' W Click for more
254964 CTD/STD cast 1985-12-08 00:24Z 55° 28' N, 4° 54' W Click for more
254976 CTD/STD cast 1985-12-08 01:11Z 55° 28' N, 5° 1' W Click for more
254988 CTD/STD cast 1985-12-08 02:15Z 55° 23' N, 5° 5' W Click for more
255003 CTD/STD cast 1985-12-08 03:02Z 55° 22' N, 4° 58' W Click for more
255015 CTD/STD cast 1985-12-08 04:07Z 55° 16' N, 4° 56' W Click for more
255027 CTD/STD cast 1985-12-08 04:58Z 55° 19' N, 5° 4' W Click for more
255039 CTD/STD cast 1985-12-08 05:34Z 55° 20' N, 5° 9' W Click for more
255040 CTD/STD cast 1985-12-08 06:08Z 55° 22' N, 5° 12' W Click for more
255052 CTD/STD cast 1985-12-08 07:17Z 55° 22' N, 5° 27' W Click for more
255064 CTD/STD cast 1985-12-08 08:04Z 55° 19' N, 5° 20' W Click for more
255076 CTD/STD cast 1985-12-08 08:54Z 55° 16' N, 5° 13' W Click for more
255088 CTD/STD cast 1985-12-08 09:30Z 55° 14' N, 5° 12' W Click for more
255107 CTD/STD cast 1985-12-08 10:21Z 55° 13' N, 5° 3' W Click for more
255119 CTD/STD cast 1985-12-08 10:59Z 55° 13' N, 4° 58' W Click for more
255120 CTD/STD cast 1985-12-08 15:29Z 54° 39' N, 5° 30' W Click for more
255132 CTD/STD cast 1985-12-08 16:12Z 54° 42' N, 5° 24' W Click for more
255144 CTD/STD cast 1985-12-08 17:23Z 54° 51' N, 5° 19' W Click for more
255156 CTD/STD cast 1985-12-08 18:12Z 54° 43' N, 5° 13' W Click for more
255168 CTD/STD cast 1985-12-08 19:48Z 54° 46' N, 5° 9' W Click for more
255181 CTD/STD cast 1985-12-08 20:28Z 54° 51' N, 5° 7' W Click for more
255193 CTD/STD cast 1985-12-08 21:48Z 54° 57' N, 5° 12' W Click for more
255200 CTD/STD cast 1985-12-08 22:37Z 55° 1' N, 5° 19' W Click for more
255212 CTD/STD cast 1985-12-08 23:25Z 55° 4' N, 5° 25' W Click for more
255224 CTD/STD cast 1985-12-09 00:19Z 55° 9' N, 5° 31' W Click for more
255236 CTD/STD cast 1985-12-09 01:10Z 55° 13' N, 5° 36' W Click for more
255248 CTD/STD cast 1985-12-09 02:04Z 55° 16' N, 5° 43' W Click for more
255261 CTD/STD cast 1985-12-09 03:27Z 55° 12' N, 5° 27' W Click for more
255273 CTD/STD cast 1985-12-09 20:13Z 55° 9' N, 5° 3' W Click for more
255285 CTD/STD cast 1985-12-09 21:00Z 55° 11' N, 5° 11' W Click for more
255297 CTD/STD cast 1985-12-09 21:44Z 55° 13' N, 5° 15' W Click for more
255304 CTD/STD cast 1985-12-09 22:33Z 55° 16' N, 5° 24' W Click for more
255316 CTD/STD cast 1985-12-10 01:05Z 55° 9' N, 6° 0' W Click for more
255328 CTD/STD cast 1985-12-10 01:42Z 55° 12' N, 5° 55' W Click for more
255341 CTD/STD cast 1985-12-10 02:24Z 55° 13' N, 5° 52' W Click for more
255353 CTD/STD cast 1985-12-10 03:06Z 55° 15' N, 5° 47' W Click for more
255365 CTD/STD cast 1985-12-10 04:52Z 55° 12' N, 5° 27' W Click for more
255377 CTD/STD cast 1985-12-10 05:39Z 55° 9' N, 5° 19' W Click for more
255389 CTD/STD cast 1985-12-10 06:26Z 55° 7' N, 5° 13' W Click for more
255390 CTD/STD cast 1985-12-10 07:08Z 55° 6' N, 5° 10' W Click for more
255408 CTD/STD cast 1985-12-10 07:41Z 55° 4' N, 5° 4' W Click for more
255421 CTD/STD cast 1985-12-10 21:37Z 55° 35' N, 5° 45' W Click for more
255433 CTD/STD cast 1985-12-10 22:14Z 55° 35' N, 5° 48' W Click for more
255445 CTD/STD cast 1985-12-10 22:53Z 55° 37' N, 5° 53' W Click for more
255457 CTD/STD cast 1985-12-10 23:50Z 55° 38' N, 5° 57' W Click for more
255469 CTD/STD cast 1985-12-11 00:27Z 55° 39' N, 6° 1' W Click for more
255470 CTD/STD cast 1985-12-11 03:29Z 55° 42' N, 6° 22' W Click for more
255482 CTD/STD cast 1985-12-11 04:23Z 55° 37' N, 6° 25' W Click for more
255494 CTD/STD cast 1985-12-11 05:23Z 55° 33' N, 6° 34' W Click for more
255501 CTD/STD cast 1985-12-11 05:52Z 55° 33' N, 6° 29' W Click for more
255513 CTD/STD cast 1985-12-11 06:47Z 55° 28' N, 6° 33' W Click for more
255525 CTD/STD cast 1985-12-11 07:40Z 55° 22' N, 6° 37' W Click for more
255537 CTD/STD cast 1985-12-11 08:39Z 55° 19' N, 6° 40' W Click for more
255549 CTD/STD cast 1985-12-11 09:37Z 55° 13' N, 6° 45' W Click for more
255550 CTD/STD cast 1985-12-11 15:31Z 55° 46' N, 8° 0' W Click for more
255562 CTD/STD cast 1985-12-13 12:18Z 55° 46' N, 7° 42' W Click for more
255574 CTD/STD cast 1985-12-13 13:33Z 55° 46' N, 7° 29' W Click for more
255586 CTD/STD cast 1985-12-13 14:41Z 55° 46' N, 7° 16' W Click for more
255598 CTD/STD cast 1985-12-13 15:47Z 55° 46' N, 7° 4' W Click for more
255605 CTD/STD cast 1985-12-13 16:47Z 55° 46' N, 6° 55' W Click for more
255617 CTD/STD cast 1985-12-13 17:31Z 55° 46' N, 6° 46' W Click for more
255629 CTD/STD cast 1985-12-13 18:13Z 55° 46' N, 6° 37' W Click for more
255630 CTD/STD cast 1985-12-13 19:07Z 55° 46' N, 6° 31' W Click for more
255642 CTD/STD cast 1985-12-13 20:20Z 55° 52' N, 6° 28' W Click for more
255654 CTD/STD cast 1985-12-13 21:15Z 55° 57' N, 6° 34' W Click for more
255666 CTD/STD cast 1985-12-13 22:14Z 56° 1' N, 6° 40' W Click for more
255678 CTD/STD cast 1985-12-13 23:12Z 56° 4' N, 6° 46' W Click for more
255691 CTD/STD cast 1985-12-14 00:15Z 56° 9' N, 6° 53' W Click for more
255709 CTD/STD cast 1985-12-14 01:07Z 56° 13' N, 6° 58' W Click for more
255710 CTD/STD cast 1985-12-14 01:58Z 56° 16' N, 7° 4' W Click for more
255722 CTD/STD cast 1985-12-14 05:43Z 56° 16' N, 6° 5' W Click for more
255734 CTD/STD cast 1985-12-14 06:19Z 56° 13' N, 6° 2' W Click for more
255746 CTD/STD cast 1985-12-14 06:53Z 56° 10' N, 5° 59' W Click for more
255758 CTD/STD cast 1985-12-14 07:26Z 56° 7' N, 5° 55' W Click for more
255771 CTD/STD cast 1985-12-14 07:56Z 56° 6' N, 5° 53' W Click for more
255783 CTD/STD cast 1985-12-15 16:50Z 56° 40' N, 6° 7' W Click for more
255795 CTD/STD cast 1985-12-15 18:00Z 56° 41' N, 6° 16' W Click for more
255802 CTD/STD cast 1985-12-15 19:29Z 56° 43' N, 6° 27' W Click for more
255814 CTD/STD cast 1985-12-15 20:52Z 56° 43' N, 6° 45' W Click for more
255826 CTD/STD cast 1985-12-16 02:43Z 56° 43' N, 7° 0' W Click for more
255838 CTD/STD cast 1985-12-16 17:13Z 56° 43' N, 7° 40' W Click for more
255851 CTD/STD cast 1985-12-16 20:02Z 56° 46' N, 8° 0' W Click for more
255863 CTD/STD cast 1985-12-16 22:17Z 56° 52' N, 8° 30' W Click for more
255875 CTD/STD cast 1985-12-16 23:27Z 56° 52' N, 8° 30' W Click for more
255887 CTD/STD cast 1985-12-17 02:59Z 57° 0' N, 9° 0' W Click for more
255899 CTD/STD cast 1985-12-17 08:00Z 56° 43' N, 7° 30' W Click for more
255906 CTD/STD cast 1985-12-17 08:58Z 56° 44' N, 7° 19' W Click for more
262177 CTD/STD cast 1985-12-06 17:16Z 55° 27' N, 5° 27' W Click for more
262189 CTD/STD cast 1985-12-06 18:26Z 55° 31' N, 5° 22' W Click for more
262190 CTD/STD cast 1985-12-06 19:04Z 55° 31' N, 5° 27' W Click for more
262208 CTD/STD cast 1985-12-06 19:43Z 55° 34' N, 5° 24' W Click for more
262221 CTD/STD cast 1985-12-06 20:37Z 55° 38' N, 5° 25' W Click for more
262233 CTD/STD cast 1985-12-06 21:28Z 55° 44' N, 5° 22' W Click for more
262245 CTD/STD cast 1985-12-06 22:07Z 55° 44' N, 5° 22' W Click for more
262257 CTD/STD cast 1985-12-06 22:51Z 55° 44' N, 5° 16' W Click for more
262269 CTD/STD cast 1985-12-06 23:35Z 55° 48' N, 5° 14' W Click for more
262270 CTD/STD cast 1985-12-07 00:22Z 55° 49' N, 5° 16' W Click for more
262282 CTD/STD cast 1985-12-07 01:24Z 55° 54' N, 5° 23' W Click for more
262294 CTD/STD cast 1985-12-07 02:16Z 55° 58' N, 5° 22' W Click for more
262301 CTD/STD cast 1985-12-07 06:41Z 55° 24' N, 5° 20' W Click for more
262313 CTD/STD cast 1985-12-07 07:39Z 55° 19' N, 5° 27' W Click for more
262325 CTD/STD cast 1985-12-07 14:02Z 55° 42' N, 5° 9' W Click for more
262337 CTD/STD cast 1985-12-07 14:42Z 55° 43' N, 5° 4' W Click for more
262349 CTD/STD cast 1985-12-07 16:38Z 55° 49' N, 4° 58' W Click for more
262350 CTD/STD cast 1985-12-07 17:11Z 55° 50' N, 4° 55' W Click for more
262362 CTD/STD cast 1985-12-07 18:52Z 55° 39' N, 4° 54' W Click for more
262374 CTD/STD cast 1985-12-07 19:29Z 55° 37' N, 5° 0' W Click for more
262386 CTD/STD cast 1985-12-07 20:08Z 55° 36' N, 5° 4' W Click for more
262398 CTD/STD cast 1985-12-07 21:14Z 55° 34' N, 4° 59' W Click for more
262405 CTD/STD cast 1985-12-07 22:09Z 55° 31' N, 4° 52' W Click for more

Project Database

No data currently held for this cruise in the BODC Project Database

References

Track Charts

Track Chart

Track Chart

Reports

Cruise Report